Regional Weather Roundup
Issued by NWS

Home | Current Version | Previous Version | Graphics & Text | Print | Product List | Glossary On
Versions: 1 2 3 4 5 6 7 8 9 10 11 12 13 14 15 16 17 18 19 20 21 22 23 24 25 26 27 28 29 30 31 32 33 34 35 36 37 38 39 40 41 42 43 44 45 46 47 48 49 50
000
ASUS45 KTFX 300419
RWRMT
MONTANA HOURLY WEATHER ROUNDUP
NATIONAL WEATHER SERVICE GREAT FALLS MT
1019 PM MDT SUN MAR 29 2015

NOTE: "FAIR" INDICATES FEW OR NO CLOUDS BELOW 12000 FEET WITH NO
SIGNIFICANT WEATHER AND/OR OBSTRUCTIONS TO VISIBILITY.

* THESE STATIONS ARE NOT UNDER NWS QUALITY CONTROL. THEY DO NOT
   REPORT WEATHER SUCH AS PRECIPITATION OR FOG.

MTZ001>007-043-300500-
WEST OF THE DIVIDE
CITY           SKY/WX    TMP DP  RH WIND       PRES   REMARKS
KALISPELL      CLOUDY    46  36  68 E3        30.13R
MISSOULA       MOCLDY    46  34  63 N6        30.17F
BUTTE          MOCLDY    45  27  49 NW6       30.18S
MULLAN PASS    MOCLDY    37  28  70 SW6       30.17S WCI  32
* ESSEX        N/A       44  35  71 NW1        N/A
* EUREKA APT   CLOUDY    54  34  47 SE8       30.13R
* HAMILTON APT PTCLDY    46  30  54 SW5       30.17S
* LIBBY APT    CLOUDY    46  37  71 CALM      30.13R
* LINCOLN      N/A       48  30  50 SW6G20     N/A
* LOOKOUT PASS N/A       40  33  76 N2         N/A
* POLSON       N/A       46  34  63 SE1        N/A
* RONAN APT    CLOUDY    50  39  66 N/A        N/A
* SEELEY LAKE  N/A       43  31  63 E1         N/A
* THOMP F APT  MOCLDY    40  13  33 N3G9       N/A
* YAAK HILL    N/A       48  37  66 NE1        N/A
$$

MTZ008-052>055-300500-
SOUTHWEST MONTANA
CITY           SKY/WX    TMP DP  RH WIND       PRES   REMARKS
BOZEMAN        MOCLDY    46  25  44 E3        30.15R
DILLON         PTCLDY    50  23  35 N/A       30.16R
* W YELLOWSTON CLEAR     33  19  56 N/A        N/A
* THREE FORKS  MOCLDY    50  25  38 N/A        N/A
* TWIN BRIDGES MOCLDY    50  19  29 NW5        N/A
* BOULDER HILL N/A       42  22  45 SW2        N/A
* HOMESTAKE PS N/A       40  25  55 W3G9       N/A
* MONIDA PASS  N/A       38  16  41 S1         N/A
* RAYNOLDS PAS N/A       38  24  57 S7         N/A   WCI  33
* WHITEHALL    N/A       47  24  40 NW6G11     N/A
* WISE RIVER   N/A       42  25  51 SW8G13     N/A
$$

MTZ009>010-012-014-046-048-049-054-300500-
EAST SLOPES AND CENTRAL MONTANA
CITY           SKY/WX    TMP DP  RH WIND       PRES   REMARKS
CUT BANK       CLOUDY    48  30  50 SW21      29.97R
GREAT FALLS    CLOUDY    54  28  37 SW33G43   29.99F
HELENA         MOCLDY    54  28  37 SW5       30.13R
MALMSTROM AFB  CLOUDY    54  28  37 SW30G41   30.01S
* CONRAD       CLOUDY    48  30  50 SW6        N/A
* DEARBORN     N/A       55  29  37 S8G21      N/A
* EAST GLACIER N/A       45  28  51 SW17G23    N/A
* MONARCH      N/A       48  19  32 W22G29     N/A
* PENDROY      N/A       44  29  56 S6G11      N/A
* ROGERS PASS  N/A       44  29  56 SE16G26    N/A
* SAINT MARY   N/A       46  29  52 S10G26     N/A
* WHITE SULPH  N/A       49  24  38 NW12G17    N/A
$$

MTZ011-013-016-021-035-040-045-047-050-051-300500-
NORTH CENTRAL MONTANA
CITY           SKY/WX    TMP DP  RH WIND       PRES   REMARKS
HAVRE          PTCLDY    48  32  54 SW16      29.93S
LEWISTOWN      PTCLDY    45  28  51 SW10      30.01S
* N BAR RANCH  CLEAR     45  25  45 CALM      30.02S
* CHINOOK      PTCLDY    54  30  40 W21       29.90F
* FORT BENTON  CLOUDY    54  30  40 SW16G21   29.99R
* MALTA APT    PTCLDY    46  30  54 N/A        N/A
* CHESTER      N/A       51  29  43 NE3G9      N/A
* DENTON       N/A       50  27  41 W14G20     N/A
* GEYSER       N/A       49  23  36 W12G19     N/A
* JUDITH GAP   N/A       51  20  29 W22G29     N/A
* LOMA         N/A       53  29  40 SW10       N/A
$$

MTZ017>020-022>027-061-062-300500-
NORTHEAST MONTANA
CITY           SKY/WX    TMP DP  RH WIND       PRES   REMARKS
GLASGOW        PTCLDY    46  30  54 SW8       29.88F
GLENDIVE       CLEAR     41  30  65 W6        29.95F
JORDAN         PTCLDY    43  34  71 W7        29.94F
SIDNEY         CLEAR     46  30  54 SW12      29.91F
WOLF POINT     PTCLDY    43  34  71 CALM      29.89F
* BEAVER HILL  N/A       47  30  52 SW9        N/A
* CIRCLE       N/A       45  33  63 N/A        N/A
* LINDSAY DVD  N/A       45  29  54 SW9        N/A
* NAVAJO       N/A       44  33  65 SW14       N/A
* PLENTYWOOD A CLEAR     45  34  65 CALM      29.86F
* POPLAR APT   PTCLDY    48  34  59 SW5       29.90F
* SACO         N/A       47  31  54 S11        N/A
$$

MTZ028>042-056>058-300500-
SOUTHCENTRAL AND SOUTHEAST MONTANA
CITY           SKY/WX    TMP DP  RH WIND       PRES   REMARKS
BAKER          CLEAR     45  27  49 VRB3      29.99S
BILLINGS       MOCLDY    55  19  24 SW6       30.02F
LIVINGSTON     PTCLDY    55  21  27 W25       30.09R
MILES CITY     PTCLDY    46  27  48 SW7       29.97F
* BIG TIMBER A PTCLDY    55  21  27 SW9       30.07S
* FORSYTH APT  MOCLDY    48  27  44 CALM      29.98F
* LAUREL APT   PTCLDY    48  19  32 N/A        N/A
* ROUNDUP APT  MOCLDY    54  19  25 N/A        N/A
* ALZADA       N/A       44  25  47 E1         N/A
* HYSHAM       N/A       50  18  28 NW1        N/A
* LAME DEER    N/A       49  18  29 SW4        N/A
* REED POINT   N/A       53  23  31 N/A        N/A
* ROSCOE HILL  N/A       52  10  18 SW3G14     N/A
$$

REGIONAL REPORTS...DAKOTAS
CITY           SKY/WX    TMP DP  RH WIND       PRES   REMARKS
WILLISTON      PTCLDY    43  34  71 SW6       29.89F
DICKINSON      CLOUDY    41  30  65 SW3       29.93F
BEACH          CLEAR     39  32  76 SW7       29.96F WCI  34
CROSBY         CLEAR     37  36  96 SE5       29.86F WCI  33
TIOGA          CLEAR     43  34  71 SW10      29.90F
WATFORD CITY   CLEAR     41  32  70 SW8       29.89F
BISMARCK       MOCLDY    39  28  65 CALM      29.96F
GRAND FORKS    CLEAR     34  27  76 W7        29.90S WCI  28
FARGO          PTCLDY    39  28  65 SW8       29.92S WCI  33
BUFFALO SD     PTCLDY    46  28  50 W5        29.95S
RAPID CITY     MOCLDY    43  28  56 CALM      30.06S
$$

REGIONAL REPORTS...WYOMING/IDAHO/WASHINGTON
CITY           SKY/WX    TMP DP  RH WIND       PRES   REMARKS
GILLETTE       CLEAR     36  27  70 S8        30.07S WCI  30
SHERIDAN       CLEAR     39  28  65 CALM      30.06R
CODY           PTCLDY    54  16  22 W14G23    30.11R
YELLOWSTONE LA PTCLDY    27  18  69 CALM      30.28S
SALMON         PTCLDY    45  27  49 CALM      30.17R
MULLAN PASS    MOCLDY    37  28  70 SW6       30.17S WCI  32
SAND POINT     CLOUDY    45  43  93 CALM      30.12F
SPOKANE        CLOUDY    52  37  57 S5        30.13S
$$

REGIONAL REPORTS...ALBERTA
CITY           SKY/WX    TMP DP  RH WIND       PRES   REMARKS
CALGARY        FAIR      48  28  46 W17       29.88S
LETHBRIDGE     CLOUDY    48  32  54 SW7       29.94F
MEDICINE HAT   CLEAR     52  34  50 W24G36    29.83R
EDMONTON       N/A       45  32  60 NW10G17   29.82R
WATERTON GATE  N/A       48  28  46 SW16G28    N/A
CARDSTON       N/A       48  32  54 W12G17     N/A
MILK RIVER     N/A       48  32  54 W17        N/A
$$

REGIONAL REPORTS...SASKATCHEWAN
CITY           SKY/WX    TMP DP  RH WIND       PRES   REMARKS
SWIFT CURRENT  MOCLDY    46  34  63 SW16      29.77F
REGINA         FAIR      41  37  86 SE9       29.81F
VAL MARIE      N/A       45  32  60 W10        N/A
ASSINIBOIA     N/A       43  34  71 SW9        N/A
CORONACH       N/A       43  34  71 SW9        N/A

$$




USA.gov is the U.S. government's official web portal to all federal, state and local government web resources and services.